Starlink 33546

operational
NORAD ID: 62287 Int'l Des: 2024-237 Owner: SPXS Country: US Constellation: starlink
LEOCIRCULAR

Über Starlink 33546

Beschreibung wird geladen...

Live-Position

3D-Globus wird geladen...

Nächste Überflüge

Höhenverlauf

Altitude vs Time

uPlot chart will show altitude changes over time

Zweizeiliger Elementsatz

1 62287U 24237W 25354.84714683 .00025771 00000-0 94259-3 0 9997
2 62287 43.0006 301.6495 0001364 265.4747 94.5949 15.27585316 59048
Epoch: 20. Dez. 2025 • Age: 6 hours

Aktueller Status

Höhe 489.0 km
Geschwindigkeit 7.62 km/s
Subsatellitenpunkt -26.23°S, 142.1°E
Startdatum 8. Dez. 2024
Alter 1 years
Typ internet

Technische Details

Klassifizierung Payload
Masse 530.00 kg
Trockenmasse 500.00 kg
Gesamtmasse 530.00 kg
Länge 0.30 m
Durchmesser 4.10 m
Spannweite 29.00 m
Form Box + pan
Hersteller SPXS
Bus-Typ Starlink V2MO
Phasenstatus In Orbit
Besitzer/Staat SPXS/US

Große Konstellationen

Loading constellations...